CMT424H EPKT-ENGM

Flight info

Callsign CMT424H
Flight time 1h 37m
Altitude 40000
Route LUMVE L619 NUDRO DCT XIDNA L619 ADVAB/N0495F430 DCT TUPUR DCT XELOL DCT POKEN DCT ROXUB DCT TOPLA DCT SABAK DCT XENTA DCT REGMA/N0397F140 L997 LUNIP
Aircraft A359/H-SDE2E3GHIJ3J4J5LM1ORWXY/LB1D1

Departure

Time 2026-05-07 17:14
Airport Katowice Wojciech Korfanty International Airport (EPKT)

Arrival

Time 2026-05-07 18:51
Airport Oslo-Gardermoen International Airport (ENGM)
Time Latitude Longitude Altitude Speed Heading
2026-05-07 16:43 50.47140 19.09681 1005 ft 0 kts 180°
2026-05-07 17:06 50.47153 19.09681 1008 ft 4 kts 188°
2026-05-07 17:07 50.47178 19.09692 1005 ft 4 kts 208°
2026-05-07 17:07 50.47201 19.09712 1005 ft 4 kts 197°
2026-05-07 17:07 50.47221 19.09717 1005 ft 4 kts 156°
2026-05-07 17:07 50.47230 19.09695 1008 ft 3 kts 90°
2026-05-07 17:08 50.47230 19.09653 1005 ft 4 kts 90°
2026-05-07 17:08 50.47230 19.09635 1005 ft 0 kts 90°
2026-05-07 17:10 50.47230 19.09636 1005 ft 0 kts 90°
2026-05-07 17:10 50.47229 19.09678 1005 ft 8 kts 94°
2026-05-07 17:11 50.47229 19.09802 1005 ft 14 kts 90°
2026-05-07 17:11 50.47229 19.09964 1005 ft 16 kts 90°
2026-05-07 17:11 50.47267 19.10088 1005 ft 13 kts 53°
2026-05-07 17:11 50.47323 19.10200 1005 ft 14 kts 52°
2026-05-07 17:12 50.47389 19.10331 1005 ft 16 kts 52°
2026-05-07 17:12 50.47474 19.10439 1006 ft 16 kts 14°
2026-05-07 17:12 50.47577 19.10437 1004 ft 9 kts 336°
2026-05-07 17:12 50.47592 19.10385 1009 ft 8 kts 281°
2026-05-07 17:13 50.47593 19.10347 1008 ft 0 kts 271°
2026-05-07 17:13 50.47593 19.10331 1008 ft 16 kts 271°
2026-05-07 17:13 50.47597 19.09718 1005 ft 94 kts 270°
2026-05-07 17:13 50.47598 19.08339 1004 ft 156 kts 265°
2026-05-07 17:14 50.47568 19.06576 1652 ft 157 kts 274°
2026-05-07 17:14 50.47579 19.04906 2557 ft 149 kts 274°
2026-05-07 17:14 50.47593 19.03306 3365 ft 152 kts 271°
2026-05-07 17:14 50.47604 19.01510 3642 ft 179 kts 270°
2026-05-07 17:15 50.47613 18.99374 3942 ft 210 kts 270°
2026-05-07 17:15 50.47617 18.96966 4340 ft 235 kts 269°
2026-05-07 17:15 50.47621 18.94316 5003 ft 248 kts 269°
2026-05-07 17:15 50.47620 18.91569 5865 ft 254 kts 268°
2026-05-07 17:16 50.47583 18.88764 6791 ft 258 kts 267°
2026-05-07 17:16 50.47540 18.85932 7753 ft 261 kts 267°
2026-05-07 17:16 50.47497 18.83051 8754 ft 265 kts 266°
2026-05-07 17:16 50.47456 18.80127 9755 ft 269 kts 266°
2026-05-07 17:17 50.47414 18.77169 10499 ft 282 kts 266°
2026-05-07 17:17 50.47365 18.73956 10893 ft 307 kts 266°
2026-05-07 17:17 50.47313 18.70463 11272 ft 330 kts 266°
2026-05-07 17:17 50.47262 18.66785 11963 ft 341 kts 266°
2026-05-07 17:18 50.47220 18.63015 12819 ft 348 kts 268°
2026-05-07 17:18 50.47519 18.59191 13651 ft 359 kts 282°
2026-05-07 17:18 50.48599 18.55588 14422 ft 372 kts 302°
2026-05-07 17:18 50.50408 18.52629 15210 ft 381 kts 316°
2026-05-07 17:19 50.52455 18.50011 15969 ft 386 kts 318°
2026-05-07 17:19 50.54570 18.47369 16733 ft 391 kts 317°
2026-05-07 17:19 50.56711 18.44676 17530 ft 395 kts 317°
2026-05-07 17:19 50.58869 18.41946 18249 ft 402 kts 317°
2026-05-07 17:20 50.61068 18.39157 18893 ft 408 kts 316°
2026-05-07 17:20 50.63294 18.36323 19568 ft 414 kts 316°
2026-05-07 17:20 50.65529 18.33472 20243 ft 420 kts 316°
2026-05-07 17:20 50.67816 18.30548 20920 ft 426 kts 316°
2026-05-07 17:21 50.70132 18.27583 21583 ft 432 kts 316°
2026-05-07 17:21 50.72463 18.24528 22240 ft 436 kts 313°
2026-05-07 17:21 50.74566 18.21083 22893 ft 436 kts 305°
2026-05-07 17:21 50.76500 18.17361 23555 ft 440 kts 302°
2026-05-07 17:22 50.78348 18.13552 24130 ft 443 kts 301°
2026-05-07 17:22 50.80196 18.09626 24780 ft 447 kts 300°
2026-05-07 17:22 50.82054 18.05654 25374 ft 450 kts 300°
2026-05-07 17:22 50.83934 18.01647 25955 ft 455 kts 300°
2026-05-07 17:23 50.85849 17.97590 26523 ft 459 kts 300°
2026-05-07 17:23 50.87750 17.93583 27074 ft 464 kts 300°
2026-05-07 17:23 50.89710 17.89463 27641 ft 468 kts 300°
2026-05-07 17:23 50.91686 17.85313 28189 ft 472 kts 300°
2026-05-07 17:24 50.93678 17.81125 28739 ft 477 kts 300°
2026-05-07 17:24 50.95658 17.76956 29246 ft 481 kts 300°
2026-05-07 17:24 50.97680 17.72692 29748 ft 485 kts 300°
2026-05-07 17:24 50.99714 17.68392 30279 ft 489 kts 300°
2026-05-07 17:25 51.01764 17.64054 30738 ft 491 kts 300°
2026-05-07 17:25 51.03821 17.59693 31199 ft 494 kts 300°
2026-05-07 17:25 51.05886 17.55308 31622 ft 496 kts 300°
2026-05-07 17:25 51.07960 17.50894 32028 ft 499 kts 300°
2026-05-07 17:26 51.10041 17.46458 32434 ft 501 kts 300°
2026-05-07 17:26 51.12110 17.42042 32810 ft 504 kts 300°
2026-05-07 17:26 51.14373 17.37730 33149 ft 512 kts 308°
2026-05-07 17:26 51.17042 17.33903 33676 ft 520 kts 317°
2026-05-07 17:27 51.20114 17.30726 33975 ft 527 kts 328°
2026-05-07 17:27 51.23414 17.28298 34044 ft 529 kts 333°
2026-05-07 17:27 51.26829 17.26105 34201 ft 530 kts 335°
2026-05-07 17:27 51.30278 17.24020 34653 ft 526 kts 336°
2026-05-07 17:28 51.33704 17.21991 35173 ft 522 kts 336°
2026-05-07 17:28 51.37102 17.19976 35639 ft 518 kts 336°
2026-05-07 17:28 51.40473 17.17957 36058 ft 516 kts 336°
2026-05-07 17:28 51.43839 17.15918 36436 ft 514 kts 335°
2026-05-07 17:29 51.47139 17.13901 36812 ft 513 kts 335°
2026-05-07 17:29 51.50464 17.11858 37217 ft 511 kts 335°
2026-05-07 17:29 51.53781 17.09813 37571 ft 510 kts 335°
2026-05-07 17:29 51.57097 17.07764 37973 ft 508 kts 336°
2026-05-07 17:30 51.60399 17.05721 38415 ft 505 kts 336°
2026-05-07 17:30 51.63678 17.03690 38737 ft 504 kts 336°
2026-05-07 17:30 51.66950 17.01661 38955 ft 504 kts 336°
2026-05-07 17:30 51.70192 16.99646 39147 ft 505 kts 336°
2026-05-07 17:31 51.73467 16.97615 39346 ft 505 kts 336°
2026-05-07 17:31 51.76750 16.95572 39541 ft 505 kts 336°
2026-05-07 17:31 51.80026 16.93526 39734 ft 504 kts 336°
2026-05-07 17:31 51.83314 16.91470 39933 ft 504 kts 336°
2026-05-07 17:32 51.89844 16.87376 40030 ft 505 kts 336°
2026-05-07 17:32 51.95291 16.83955 40034 ft 505 kts 336°
2026-05-07 17:33 52.02947 16.79132 40028 ft 504 kts 336°
2026-05-07 17:33 52.09500 16.74990 40034 ft 504 kts 336°
2026-05-07 17:34 52.15812 16.70241 40037 ft 501 kts 329°
2026-05-07 17:34 52.21964 16.64849 40044 ft 501 kts 328°
2026-05-07 17:35 52.28047 16.59387 40044 ft 501 kts 328°
2026-05-07 17:35 52.34165 16.53872 40056 ft 501 kts 328°
2026-05-07 17:36 52.40257 16.48378 40048 ft 500 kts 328°
2026-05-07 17:36 52.46314 16.42906 40048 ft 499 kts 328°
2026-05-07 17:37 52.52408 16.37384 40049 ft 499 kts 328°
2026-05-07 17:37 52.58493 16.31852 40050 ft 499 kts 328°
2026-05-07 17:38 52.64543 16.26334 40051 ft 499 kts 328°
2026-05-07 17:38 52.70624 16.20771 40053 ft 499 kts 328°
2026-05-07 17:39 52.76693 16.15199 40052 ft 500 kts 328°
2026-05-07 17:39 52.82783 16.09591 40057 ft 500 kts 328°
2026-05-07 17:40 52.88817 16.04017 40057 ft 499 kts 328°
2026-05-07 17:40 52.94888 15.98390 40065 ft 499 kts 328°
2026-05-07 17:41 53.00944 15.92759 40065 ft 499 kts 328°
2026-05-07 17:41 53.05978 15.88064 40064 ft 498 kts 328°
2026-05-07 17:42 53.12033 15.82400 40067 ft 498 kts 328°
2026-05-07 17:42 53.18184 15.77049 40067 ft 500 kts 333°
2026-05-07 17:43 53.24502 15.72295 40072 ft 500 kts 333°
2026-05-07 17:43 53.30841 15.67512 40072 ft 499 kts 333°
2026-05-07 17:44 53.37139 15.62619 40075 ft 499 kts 332°
2026-05-07 17:44 53.43430 15.57656 40081 ft 498 kts 332°
2026-05-07 17:45 53.49666 15.52713 40086 ft 498 kts 332°
2026-05-07 17:45 53.55934 15.47732 40080 ft 497 kts 332°
2026-05-07 17:46 53.62197 15.42742 40084 ft 497 kts 332°
2026-05-07 17:46 53.68405 15.37781 40086 ft 497 kts 332°
2026-05-07 17:47 53.74676 15.32753 40091 ft 497 kts 332°
2026-05-07 17:47 53.80916 15.27733 40094 ft 497 kts 332°
2026-05-07 17:48 53.87133 15.22715 40100 ft 497 kts 332°
2026-05-07 17:48 53.93380 15.17656 40100 ft 496 kts 332°
2026-05-07 17:49 53.99612 15.12593 40102 ft 496 kts 332°
2026-05-07 17:49 54.05854 15.07504 40108 ft 496 kts 332°
2026-05-07 17:50 54.12049 15.02437 40110 ft 496 kts 332°
2026-05-07 17:50 54.18285 14.97319 40121 ft 496 kts 332°
2026-05-07 17:51 54.24478 14.92219 40116 ft 496 kts 332°
2026-05-07 17:51 54.30876 14.87667 40115 ft 497 kts 338°
2026-05-07 17:52 54.37396 14.83655 40119 ft 498 kts 338°
2026-05-07 17:52 54.43896 14.79735 40116 ft 498 kts 338°
2026-05-07 17:53 54.50439 14.75778 40123 ft 498 kts 338°
2026-05-07 17:53 54.56973 14.71800 40125 ft 497 kts 338°
2026-05-07 17:54 54.63503 14.67805 40137 ft 497 kts 338°
2026-05-07 17:54 54.69978 14.63830 40127 ft 497 kts 338°
2026-05-07 17:55 54.76495 14.59815 40127 ft 496 kts 338°
2026-05-07 17:55 54.82854 14.55233 40131 ft 493 kts 328°
2026-05-07 17:56 54.88760 14.49166 40129 ft 492 kts 326°
2026-05-07 17:56 54.94576 14.42867 40131 ft 492 kts 325°
2026-05-07 17:57 54.99407 14.37578 40128 ft 492 kts 325°
2026-05-07 17:57 55.06153 14.30190 40129 ft 491 kts 326°
2026-05-07 17:58 55.11916 14.23875 40127 ft 491 kts 326°
2026-05-07 17:58 55.17705 14.17514 40124 ft 491 kts 326°
2026-05-07 17:59 55.23495 14.11131 40125 ft 491 kts 326°
2026-05-07 17:59 55.29464 14.05262 40124 ft 492 kts 330°
2026-05-07 18:00 55.35547 13.99827 40124 ft 493 kts 331°
2026-05-07 18:00 55.41686 13.94405 40124 ft 493 kts 331°
2026-05-07 18:01 55.47818 13.88971 40117 ft 492 kts 331°
2026-05-07 18:01 55.53900 13.83549 40119 ft 492 kts 331°
2026-05-07 18:02 55.63049 13.75350 40107 ft 490 kts 331°
2026-05-07 18:03 55.69138 13.69868 40110 ft 490 kts 331°
2026-05-07 18:03 55.75195 13.64396 40107 ft 490 kts 331°
2026-05-07 18:04 55.81293 13.58869 40111 ft 490 kts 331°
2026-05-07 18:04 55.87361 13.53350 40130 ft 489 kts 331°
2026-05-07 18:05 55.93382 13.47853 40126 ft 488 kts 330°
2026-05-07 18:05 55.99437 13.42307 40125 ft 488 kts 330°
2026-05-07 18:06 56.05490 13.36741 40125 ft 488 kts 330°
2026-05-07 18:06 56.11495 13.31201 40127 ft 488 kts 330°
2026-05-07 18:07 56.17541 13.25603 40130 ft 489 kts 330°
2026-05-07 18:07 56.23605 13.19969 40132 ft 489 kts 330°
2026-05-07 18:08 56.29616 13.14363 40126 ft 489 kts 330°
2026-05-07 18:08 56.35662 13.08704 40127 ft 489 kts 330°
2026-05-07 18:09 56.41656 13.03075 40131 ft 489 kts 330°
2026-05-07 18:09 56.47685 12.97393 40129 ft 488 kts 330°
2026-05-07 18:10 56.53715 12.91689 40108 ft 487 kts 330°
2026-05-07 18:10 56.59694 12.86012 40103 ft 487 kts 330°
2026-05-07 18:11 56.65706 12.80283 40103 ft 486 kts 330°
2026-05-07 18:11 56.71661 12.74588 40104 ft 486 kts 330°
2026-05-07 18:12 56.77647 12.68844 40106 ft 484 kts 330°
2026-05-07 18:12 56.83614 12.63096 40110 ft 483 kts 330°
2026-05-07 18:13 56.89528 12.57379 40112 ft 483 kts 330°
2026-05-07 18:13 56.95489 12.51594 40122 ft 483 kts 330°
2026-05-07 18:14 57.01406 12.45833 40122 ft 483 kts 330°
2026-05-07 18:14 57.07345 12.40029 40125 ft 482 kts 329°
2026-05-07 18:15 57.13272 12.34400 40122 ft 482 kts 334°
2026-05-07 18:15 57.19562 12.29989 40122 ft 483 kts 338°
2026-05-07 18:16 57.25907 12.25827 40124 ft 483 kts 338°
2026-05-07 18:16 57.32223 12.21726 40126 ft 483 kts 338°
2026-05-07 18:17 57.38561 12.17581 40126 ft 483 kts 338°
2026-05-07 18:17 57.44901 12.13405 40125 ft 482 kts 338°
2026-05-07 18:18 57.51237 12.09210 40120 ft 482 kts 338°
2026-05-07 18:18 57.57513 12.05040 40131 ft 482 kts 338°
2026-05-07 18:19 57.63842 12.00821 40131 ft 482 kts 337°
2026-05-07 18:19 57.70159 11.96593 40130 ft 482 kts 337°
2026-05-07 18:20 57.76486 11.92344 40130 ft 482 kts 337°
2026-05-07 18:20 57.82767 11.88109 40131 ft 482 kts 337°
2026-05-07 18:21 57.89086 11.83835 40129 ft 482 kts 337°
2026-05-07 18:21 57.95412 11.79538 40136 ft 482 kts 337°
2026-05-07 18:22 58.01721 11.75237 40129 ft 482 kts 337°
2026-05-07 18:22 58.08044 11.70909 40125 ft 482 kts 337°
2026-05-07 18:23 58.14326 11.66595 40128 ft 482 kts 336°
2026-05-07 18:23 58.20866 11.63378 40134 ft 487 kts 346°
2026-05-07 18:24 58.27499 11.61202 40044 ft 488 kts 347°
2026-05-07 18:24 58.30849 11.60173 39811 ft 487 kts 347°
2026-05-07 18:24 58.34202 11.59155 39583 ft 487 kts 347°
2026-05-07 18:24 58.37555 11.58137 39356 ft 487 kts 347°
2026-05-07 18:25 58.40895 11.57116 38909 ft 484 kts 347°
2026-05-07 18:25 58.44215 11.56093 38162 ft 483 kts 347°
2026-05-07 18:25 58.47536 11.55063 37457 ft 481 kts 347°
2026-05-07 18:25 58.50837 11.54035 36773 ft 478 kts 347°
2026-05-07 18:26 58.54118 11.53011 36061 ft 476 kts 347°
2026-05-07 18:26 58.57387 11.51988 35324 ft 475 kts 347°
2026-05-07 18:26 58.60605 11.50979 34589 ft 473 kts 347°
2026-05-07 18:26 58.63854 11.49957 33789 ft 470 kts 347°
2026-05-07 18:27 58.67103 11.48933 32832 ft 471 kts 347°
2026-05-07 18:27 58.70332 11.47913 31923 ft 471 kts 347°
2026-05-07 18:27 58.73563 11.46896 31059 ft 470 kts 347°
2026-05-07 18:27 58.75714 11.46214 30448 ft 471 kts 347°
2026-05-07 18:28 58.80009 11.44849 29182 ft 470 kts 347°
2026-05-07 18:28 58.82116 11.44181 28731 ft 466 kts 346°
2026-05-07 18:28 58.85255 11.43184 28039 ft 461 kts 346°
2026-05-07 18:28 58.88404 11.42182 27353 ft 455 kts 346°
2026-05-07 18:29 58.91516 11.41190 26681 ft 451 kts 346°
2026-05-07 18:29 58.93555 11.40540 26449 ft 443 kts 346°
2026-05-07 18:29 58.97490 11.39290 26292 ft 422 kts 346°
2026-05-07 18:29 59.00331 11.38386 26178 ft 407 kts 346°
2026-05-07 18:30 59.03081 11.37508 26022 ft 394 kts 346°
2026-05-07 18:30 59.05742 11.36654 25852 ft 382 kts 346°
2026-05-07 18:30 59.07473 11.36095 25734 ft 374 kts 346°
2026-05-07 18:30 59.10004 11.35277 25572 ft 363 kts 345°
2026-05-07 18:31 59.12450 11.34442 25405 ft 351 kts 342°
2026-05-07 18:31 59.14798 11.33357 25250 ft 340 kts 340°
2026-05-07 18:31 59.17082 11.32383 25053 ft 335 kts 346°
2026-05-07 18:31 59.19447 11.32432 24629 ft 346 kts
2026-05-07 18:32 59.21769 11.33571 24312 ft 344 kts
2026-05-07 18:32 59.24139 11.34232 24279 ft 351 kts 357°
2026-05-07 18:32 59.26674 11.34439 24192 ft 376 kts 356°
2026-05-07 18:32 59.29411 11.34570 23876 ft 408 kts 356°
2026-05-07 18:33 59.32345 11.34704 23456 ft 434 kts 356°
2026-05-07 18:33 59.35393 11.34862 23012 ft 440 kts 357°
2026-05-07 18:33 59.38466 11.35028 22516 ft 440 kts 357°
2026-05-07 18:33 59.41479 11.35187 22015 ft 436 kts 356°
2026-05-07 18:34 59.44512 11.35343 21474 ft 433 kts 356°
2026-05-07 18:34 59.47523 11.35494 20959 ft 430 kts 357°
2026-05-07 18:34 59.50501 11.35642 20444 ft 428 kts 357°
2026-05-07 18:34 59.53477 11.35789 19938 ft 425 kts 357°
2026-05-07 18:35 59.56391 11.35933 19453 ft 423 kts 357°
2026-05-07 18:35 59.59336 11.36077 18962 ft 421 kts 357°
2026-05-07 18:35 59.62262 11.36222 18483 ft 419 kts 357°
2026-05-07 18:35 59.65182 11.36367 17943 ft 417 kts 358°
2026-05-07 18:36 59.68065 11.36511 17432 ft 410 kts 358°
2026-05-07 18:36 59.70905 11.36655 16757 ft 404 kts 358°
2026-05-07 18:36 59.73672 11.36792 16057 ft 400 kts 358°
2026-05-07 18:36 59.76443 11.36931 15359 ft 396 kts 358°
2026-05-07 18:37 59.79194 11.37068 14660 ft 392 kts 358°
2026-05-07 18:37 59.81918 11.37203 13956 ft 388 kts 358°
2026-05-07 18:37 59.84606 11.37338 13197 ft 385 kts 358°
2026-05-07 18:37 59.87237 11.37471 12536 ft 380 kts 359°
2026-05-07 18:38 59.89882 11.37602 12167 ft 380 kts 359°
2026-05-07 18:38 59.92473 11.37735 12100 ft 361 kts 359°
2026-05-07 18:38 59.94905 11.37866 11956 ft 337 kts 359°
2026-05-07 18:38 59.97150 11.37985 11632 ft 312 kts 359°
2026-05-07 18:39 59.99237 11.38094 11388 ft 288 kts 359°
2026-05-07 18:39 60.01183 11.38191 11185 ft 274 kts 358°
2026-05-07 18:39 60.03072 11.38281 11031 ft 269 kts 358°
2026-05-07 18:39 60.04935 11.38369 10914 ft 267 kts 358°
2026-05-07 18:40 60.06795 11.38459 10712 ft 266 kts 359°
2026-05-07 18:40 60.08623 11.38548 10345 ft 265 kts 359°
2026-05-07 18:40 60.10465 11.38641 10013 ft 263 kts 359°
2026-05-07 18:40 60.12288 11.38733 9677 ft 262 kts 359°
2026-05-07 18:41 60.14103 11.38825 9360 ft 261 kts 359°
2026-05-07 18:41 60.15913 11.38918 9057 ft 260 kts 359°
2026-05-07 18:41 60.17726 11.39011 8730 ft 258 kts 359°
2026-05-07 18:41 60.19494 11.39101 8421 ft 257 kts 360°
2026-05-07 18:42 60.21300 11.39193 8107 ft 256 kts
2026-05-07 18:42 60.23062 11.39283 7803 ft 255 kts
2026-05-07 18:42 60.24827 11.39374 7528 ft 251 kts
2026-05-07 18:42 60.26556 11.39464 7237 ft 247 kts
2026-05-07 18:43 60.28273 11.39554 6901 ft 246 kts
2026-05-07 18:43 60.29975 11.39639 6599 ft 244 kts
2026-05-07 18:43 60.31671 11.39726 6278 ft 242 kts
2026-05-07 18:43 60.33328 11.39812 5991 ft 241 kts
2026-05-07 18:44 60.35006 11.39899 5755 ft 240 kts
2026-05-07 18:44 60.36674 11.39986 5625 ft 240 kts
2026-05-07 18:44 60.38347 11.40046 5481 ft 239 kts 359°
2026-05-07 18:44 60.39959 11.39363 5358 ft 238 kts 334°
2026-05-07 18:45 60.41191 11.37272 5146 ft 235 kts 303°
2026-05-07 18:45 60.41639 11.34187 5017 ft 231 kts 268°
2026-05-07 18:45 60.41481 11.30966 4991 ft 224 kts 260°
2026-05-07 18:45 60.41244 11.27949 4994 ft 208 kts 260°
2026-05-07 18:46 60.41021 11.25177 4996 ft 194 kts 260°
2026-05-07 18:46 60.40762 11.22552 4928 ft 186 kts 251°
2026-05-07 18:46 60.39983 11.20541 4733 ft 184 kts 220°
2026-05-07 18:46 60.38868 11.19205 4441 ft 189 kts 200°
2026-05-07 18:47 60.37596 11.18433 4069 ft 192 kts 194°
2026-05-07 18:47 60.36361 11.17745 3780 ft 189 kts 195°
2026-05-07 18:47 60.35105 11.17001 3503 ft 186 kts 195°
2026-05-07 18:47 60.33866 11.16276 3250 ft 185 kts 195°
2026-05-07 18:48 60.32633 11.15560 2994 ft 184 kts 195°
2026-05-07 18:48 60.31401 11.14843 2749 ft 185 kts 195°
2026-05-07 18:48 60.30187 11.14138 2510 ft 175 kts 195°
2026-05-07 18:48 60.29057 11.13482 2262 ft 162 kts 195°
2026-05-07 18:49 60.28014 11.12877 2045 ft 150 kts 195°
2026-05-07 18:49 60.27044 11.12314 1841 ft 140 kts 195°
2026-05-07 18:49 60.26150 11.11795 1679 ft 131 kts 196°
2026-05-07 18:49 60.25278 11.11272 1474 ft 131 kts 195°
2026-05-07 18:50 60.24398 11.10761 1276 ft 132 kts 194°
2026-05-07 18:50 60.23506 11.10268 1101 ft 134 kts 194°
2026-05-07 18:50 60.22602 11.09749 943 ft 135 kts 194°
2026-05-07 18:50 60.21703 11.09212 746 ft 134 kts 195°
2026-05-07 18:51 60.20836 11.08711 682 ft 115 kts 193°
2026-05-07 18:51 60.20329 11.08430 679 ft 35 kts 196°
2026-05-07 18:51 60.20229 11.08372 678 ft 13 kts 196°
2026-05-07 18:51 60.20117 11.08320 678 ft 21 kts 191°
2026-05-07 18:52 60.19961 11.08317 676 ft 21 kts 165°
2026-05-07 18:52 60.19878 11.08515 682 ft 16 kts 117°
2026-05-07 18:52 60.19852 11.08720 678 ft 15 kts 103°
2026-05-07 18:52 60.19823 11.08936 678 ft 16 kts 106°
2026-05-07 18:53 60.19793 11.09144 684 ft 16 kts 106°
2026-05-07 18:53 60.19759 11.09380 685 ft 19 kts 106°
2026-05-07 18:53 60.19723 11.09626 681 ft 15 kts 106°
2026-05-07 18:53 60.19735 11.09758 683 ft 10 kts 50°
2026-05-07 18:54 60.19743 11.09851 685 ft 5 kts 105°
2026-05-07 18:54 60.19732 11.09929 686 ft 4 kts 106°
2026-05-07 18:54 60.19727 11.09964 688 ft 2 kts 106°
2026-05-07 18:54 60.19726 11.09970 687 ft 0 kts 105°